TimeCEST,TemperatureF,Dew PointF,Humidity,Sea Level PressureIn,VisibilityMPH,Wind Direction,Wind SpeedMPH,Gust SpeedMPH,PrecipitationIn,Events,Conditions,WindDirDegrees,DateUTC
12:25 AM,59.0,55.4,88,30.27,-9999.0,West,3.5,-,N/A,,Clear,280,2013-08-19 22:25:00
12:55 AM,55.4,51.8,88,30.27,-9999.0,West,3.5,-,N/A,,Clear,280,2013-08-19 22:55:00
1:25 AM,55.4,51.8,88,30.27,-9999.0,West,3.5,-,N/A,,Clear,270,2013-08-19 23:25:00
1:55 AM,55.4,51.8,88,30.27,6.2,WSW,1.2,-,N/A,Fog,Shallow Fog,250,2013-08-19 23:55:00
2:00 AM,55,52,86,30.30,22,Calm,Calm,,,,Partly Cloudy,,2013-08-20 00:00:00
2:25 AM,53.6,51.8,94,30.30,6.2,Calm,Calm,-,N/A,Fog,Shallow Fog,0,2013-08-20 00:25:00
2:55 AM,53.6,51.8,94,30.30,6.2,SW,1.2,-,N/A,Fog,Shallow Fog,230,2013-08-20 00:55:00
3:25 AM,55.4,53.6,94,30.30,6.2,South,3.5,-,N/A,Fog,Shallow Fog,170,2013-08-20 01:25:00
3:55 AM,53.6,53.6,100,30.30,6.2,SSE,1.2,-,N/A,Fog,Shallow Fog,150,2013-08-20 01:55:00
4:25 AM,53.6,53.6,100,30.30,6.2,SSE,2.3,-,N/A,Fog,Shallow Fog,160,2013-08-20 02:25:00
4:55 AM,53.6,51.8,94,30.30,6.2,SSW,3.5,-,N/A,Fog,Shallow Fog,200,2013-08-20 02:55:00
5:00 AM,53,52,93,30.32,19,SSW,4.5,,,,Mostly Cloudy,210,2013-08-20 03:00:00
5:25 AM,53.6,53.6,100,30.30,6.2,SSW,3.5,-,N/A,Fog,Shallow Fog,210,2013-08-20 03:25:00
5:55 AM,53.6,51.8,94,30.30,-9999.0,South,2.3,-,N/A,,Clear,190,2013-08-20 03:55:00
6:25 AM,55.4,53.6,94,30.30,-9999.0,SSE,2.3,-,N/A,,Clear,160,2013-08-20 04:25:00
6:55 AM,57.2,55.4,94,30.33,-9999.0,SSE,2.3,-,N/A,,Clear,150,2013-08-20 04:55:00
7:25 AM,57.2,55.4,94,30.33,-9999.0,South,4.6,-,N/A,,Clear,190,2013-08-20 05:25:00
7:55 AM,59.0,57.2,94,30.33,-9999.0,South,3.5,-,N/A,,Clear,180,2013-08-20 05:55:00
8:00 AM,59,57,92,30.35,8,South,2.2,,,,Partly Cloudy,170,2013-08-20 06:00:00
8:25 AM,60.8,57.2,88,30.33,-9999.0,Variable,2.3,-,N/A,,Clear,0,2013-08-20 06:25:00
8:55 AM,62.6,57.2,82,30.33,-9999.0,South,4.6,-,N/A,,Clear,180,2013-08-20 06:55:00
9:25 AM,62.6,55.4,77,30.33,6.2,South,4.6,-,N/A,,Partly Cloudy,190,2013-08-20 07:25:00
9:55 AM,64.4,55.4,73,30.33,6.2,South,4.6,-,N/A,,Partly Cloudy,190,2013-08-20 07:55:00
10:25 AM,66.2,53.6,64,30.36,6.2,South,5.8,-,N/A,,Partly Cloudy,190,2013-08-20 08:25:00
10:55 AM,69.8,51.8,53,30.36,6.2,SSW,6.9,-,N/A,,Partly Cloudy,210,2013-08-20 08:55:00
11:00 AM,67,48,40,30.37,17,SSW,6.7,,,,Overcast,200,2013-08-20 09:00:00
11:55 AM,68.0,51.8,56,30.36,6.2,SW,8.1,-,N/A,,Partly Cloudy,230,2013-08-20 09:55:00
12:25 PM,66.2,51.8,60,30.36,6.2,SSW,6.9,-,N/A,,Partly Cloudy,210,2013-08-20 10:25:00
12:55 PM,66.2,51.8,60,30.36,6.2,SSW,5.8,-,N/A,,Partly Cloudy,210,2013-08-20 10:55:00
1:25 PM,68.0,50.0,52,30.36,6.2,West,6.9,-,N/A,,Partly Cloudy,270,2013-08-20 11:25:00
1:55 PM,68.0,50.0,52,30.36,6.2,WSW,6.9,-,N/A,,Partly Cloudy,250,2013-08-20 11:55:00
2:00 PM,68,50,41,30.38,25,West,4.5,,,,Partly Cloudy,260,2013-08-20 12:00:00
2:25 PM,68.0,50.0,52,30.36,6.2,WSW,6.9,-,N/A,,Partly Cloudy,240,2013-08-20 12:25:00
2:55 PM,69.8,46.4,43,30.36,6.2,Variable,4.6,-,N/A,,Partly Cloudy,0,2013-08-20 12:55:00
3:25 PM,69.8,48.2,46,30.36,-9999.0,West,6.9,-,N/A,,Clear,270,2013-08-20 13:25:00
3:55 PM,71.6,48.2,43,30.36,-9999.0,WSW,5.8,-,N/A,,Clear,240,2013-08-20 13:55:00
4:25 PM,69.8,51.8,53,30.36,-9999.0,SW,5.8,-,N/A,,Clear,230,2013-08-20 14:25:00
4:55 PM,68.0,48.2,49,30.36,-9999.0,WSW,3.5,-,N/A,,Clear,250,2013-08-20 14:55:00
5:00 PM,69,50,40,30.36,22,SSW,2.2,,,,Scattered Clouds,200,2013-08-20 15:00:00
5:25 PM,69.8,48.2,46,30.33,-9999.0,WNW,3.5,-,N/A,,Clear,300,2013-08-20 15:25:00
5:55 PM,71.6,50.0,46,30.33,-9999.0,NW,8.1,-,N/A,,Clear,310,2013-08-20 15:55:00
6:25 PM,69.8,46.4,43,30.33,-9999.0,WNW,6.9,-,N/A,,Clear,300,2013-08-20 16:25:00
6:55 PM,69.8,46.4,43,30.33,-9999.0,NW,5.8,-,N/A,,Clear,320,2013-08-20 16:55:00
7:25 PM,69.8,50.0,49,30.33,-9999.0,NW,6.9,-,N/A,,Clear,320,2013-08-20 17:25:00
7:55 PM,68.0,50.0,52,30.33,-9999.0,NW,5.8,-,N/A,,Clear,320,2013-08-20 17:55:00
8:00 PM,67,50,43,30.35,28,NW,4.5,,,,Partly Cloudy,320,2013-08-20 18:00:00
8:25 PM,66.2,50.0,56,30.33,-9999.0,NNW,4.6,-,N/A,,Clear,330,2013-08-20 18:25:00
8:55 PM,64.4,50.0,59,30.33,-9999.0,NNE,3.5,-,N/A,,Clear,30,2013-08-20 18:55:00
9:25 PM,62.6,51.8,68,30.33,-9999.0,ENE,3.5,-,N/A,,Clear,60,2013-08-20 19:25:00
9:55 PM,60.8,51.8,72,30.33,-9999.0,NNE,2.3,-,N/A,,Clear,20,2013-08-20 19:55:00
10:25 PM,59.0,51.8,77,30.33,6.2,NNE,2.3,-,N/A,,Partly Cloudy,20,2013-08-20 20:25:00
10:55 PM,59.0,51.8,77,30.33,6.2,ENE,2.3,-,N/A,,Partly Cloudy,60,2013-08-20 20:55:00
11:00 PM,58,51,70,30.35,28,ENE,2.2,,,,,60,2013-08-20 21:00:00
11:25 PM,57.2,51.8,82,30.33,-9999.0,ENE,1.2,-,N/A,,Clear,60,2013-08-20 21:25:00
11:55 PM,57.2,51.8,82,30.33,-9999.0,East,2.3,-,N/A,,Clear,90,2013-08-20 21:55:00